TimeCDT,TemperatureF,Dew PointF,Humidity,Sea Level PressureIn,VisibilityMPH,Wind Direction,Wind SpeedMPH,Gust SpeedMPH,PrecipitationIn,Events,Conditions,WindDirDegrees,DateUTC
12:15 AM,78.8,60.8,54,29.96,9.0,South,4.6,-,N/A,,Clear,170,2013-06-27 05:15:00
12:35 AM,78.8,60.8,54,29.96,10.0,South,3.5,-,N/A,,Clear,190,2013-06-27 05:35:00
12:55 AM,78.8,60.8,54,29.96,10.0,South,3.5,-,N/A,,Clear,180,2013-06-27 05:55:00
1:15 AM,78.8,60.8,54,29.96,10.0,Calm,Calm,-,N/A,,Clear,0,2013-06-27 06:15:00
1:35 AM,78.8,60.8,54,29.96,10.0,Calm,Calm,-,N/A,,Clear,0,2013-06-27 06:35:00
1:55 AM,77.0,60.8,57,29.96,9.0,Calm,Calm,-,N/A,,Clear,0,2013-06-27 06:55:00
2:15 AM,77.0,60.8,57,29.97,9.0,SSE,4.6,-,N/A,,Clear,150,2013-06-27 07:15:00
2:35 AM,75.2,60.8,61,29.96,9.0,South,4.6,-,N/A,,Clear,170,2013-06-27 07:35:00
2:55 AM,77.0,60.8,57,29.96,10.0,South,5.8,-,N/A,,Clear,180,2013-06-27 07:55:00
3:15 AM,77.0,60.8,57,29.96,9.0,South,4.6,-,N/A,,Clear,180,2013-06-27 08:15:00
3:35 AM,77.0,60.8,57,29.97,10.0,Calm,Calm,-,N/A,,Clear,0,2013-06-27 08:35:00
3:55 AM,75.2,59.0,57,29.97,8.0,Calm,Calm,-,N/A,,Clear,0,2013-06-27 08:55:00
4:15 AM,75.2,59.0,57,29.97,8.0,SSE,3.5,-,N/A,,Clear,160,2013-06-27 09:15:00
4:35 AM,75.2,57.2,53,29.97,8.0,Calm,Calm,-,N/A,,Clear,0,2013-06-27 09:35:00
4:55 AM,75.2,59.0,57,29.97,8.0,South,4.6,-,N/A,,Clear,170,2013-06-27 09:55:00
5:15 AM,75.2,59.0,57,29.95,9.0,South,4.6,-,N/A,,Clear,190,2013-06-27 10:15:00
5:35 AM,77.0,60.8,57,29.96,9.0,South,4.6,-,N/A,,Clear,180,2013-06-27 10:35:00
5:55 AM,77.0,60.8,57,29.96,9.0,South,4.6,-,N/A,,Clear,180,2013-06-27 10:55:00
6:15 AM,77.0,60.8,57,29.96,7.0,South,5.8,-,N/A,,Clear,180,2013-06-27 11:15:00
6:35 AM,77.0,60.8,57,29.97,7.0,South,3.5,-,N/A,,Clear,180,2013-06-27 11:35:00
6:55 AM,78.8,60.8,54,29.97,8.0,South,4.6,-,N/A,,Partly Cloudy,180,2013-06-27 11:55:00
7:15 AM,78.8,62.6,57,29.97,7.0,South,5.8,-,N/A,,Clear,190,2013-06-27 12:15:00
7:35 AM,80.6,62.6,54,29.97,7.0,SSW,4.6,-,N/A,,Clear,200,2013-06-27 12:35:00
7:55 AM,80.6,64.4,58,29.98,9.0,SW,6.9,-,N/A,,Light Drizzle,230,2013-06-27 12:55:00
8:15 AM,82.4,66.2,58,29.97,7.0,WSW,9.2,-,N/A,,Clear,240,2013-06-27 13:15:00
8:35 AM,82.4,66.2,58,29.97,7.0,WSW,6.9,16.1,N/A,,Partly Cloudy,240,2013-06-27 13:35:00
8:55 AM,84.2,66.2,55,29.98,7.0,WSW,8.1,-,N/A,,Clear,240,2013-06-27 13:55:00
9:15 AM,87.8,69.8,55,29.97,8.0,WSW,8.1,-,N/A,,Clear,240,2013-06-27 14:15:00
9:35 AM,89.6,71.6,55,29.97,7.0,WSW,10.4,-,N/A,,Scattered Clouds,240,2013-06-27 14:35:00
9:55 AM,89.6,71.6,55,29.97,9.0,West,6.9,-,N/A,,Mostly Cloudy,260,2013-06-27 14:55:00
10:15 AM,89.6,71.6,55,29.97,8.0,West,8.1,-,N/A,,Partly Cloudy,260,2013-06-27 15:15:00
10:35 AM,91.4,73.4,55,29.96,7.0,West,8.1,21.9,N/A,,Clear,270,2013-06-27 15:35:00
10:55 AM,91.4,73.4,55,29.96,8.0,West,13.8,19.6,N/A,,Partly Cloudy,260,2013-06-27 15:55:00
11:15 AM,93.2,75.2,56,29.95,8.0,WSW,11.5,18.4,N/A,,Clear,250,2013-06-27 16:15:00
11:35 AM,93.2,75.2,56,29.95,7.0,WSW,9.2,20.7,N/A,,Scattered Clouds,250,2013-06-27 16:35:00
11:55 AM,93.2,75.2,56,29.95,8.0,West,9.2,-,N/A,,Partly Cloudy,280,2013-06-27 16:55:00
12:15 PM,96.8,77.0,53,29.95,7.0,West,8.1,-,N/A,,Clear,260,2013-06-27 17:15:00
12:35 PM,95.0,75.2,53,29.94,8.0,West,8.1,-,N/A,,Partly Cloudy,260,2013-06-27 17:35:00
12:55 PM,96.8,78.8,56,29.94,7.0,West,10.4,-,N/A,,Clear,270,2013-06-27 17:55:00
1:15 PM,96.8,78.8,56,29.94,7.0,West,8.1,-,N/A,,Clear,260,2013-06-27 18:15:00
1:35 PM,98.6,78.8,53,29.93,8.0,West,9.2,-,N/A,,Partly Cloudy,260,2013-06-27 18:35:00
1:55 PM,98.6,80.6,56,29.93,8.0,WSW,10.4,-,N/A,,Partly Cloudy,250,2013-06-27 18:55:00
2:15 PM,98.6,80.6,56,29.92,8.0,WNW,11.5,16.1,N/A,,Clear,290,2013-06-27 19:15:00
2:35 PM,98.6,80.6,56,29.92,7.0,West,10.4,-,N/A,,Clear,270,2013-06-27 19:35:00
2:55 PM,98.6,80.6,56,29.91,7.0,WSW,9.2,-,N/A,,Clear,250,2013-06-27 19:55:00
3:15 PM,98.6,80.6,56,29.91,7.0,West,9.2,-,N/A,,Partly Cloudy,260,2013-06-27 20:15:00
3:35 PM,98.6,80.6,56,29.90,6.0,West,10.4,-,N/A,,Haze,280,2013-06-27 20:35:00
3:55 PM,98.6,80.6,56,29.90,7.0,West,10.4,-,N/A,,Partly Cloudy,280,2013-06-27 20:55:00
4:15 PM,98.6,80.6,56,29.90,7.0,West,8.1,-,N/A,,Partly Cloudy,280,2013-06-27 21:15:00
4:35 PM,98.6,80.6,56,29.89,8.0,West,8.1,-,N/A,,Clear,270,2013-06-27 21:35:00
4:55 PM,98.6,80.6,56,29.88,7.0,West,10.4,-,N/A,,Clear,270,2013-06-27 21:55:00
5:15 PM,96.8,78.8,56,29.87,7.0,WSW,8.1,-,N/A,,Clear,250,2013-06-27 22:15:00
5:35 PM,96.8,78.8,56,29.87,7.0,West,9.2,-,N/A,,Clear,260,2013-06-27 22:35:00
5:55 PM,96.8,78.8,56,29.87,8.0,West,4.6,-,N/A,,Clear,270,2013-06-27 22:55:00
6:15 PM,96.8,78.8,56,29.86,7.0,West,4.6,-,N/A,,Clear,260,2013-06-27 23:15:00
6:35 PM,95.0,77.0,56,29.86,7.0,West,4.6,-,N/A,,Clear,260,2013-06-27 23:35:00
6:55 PM,93.2,75.2,56,29.86,7.0,Calm,Calm,-,N/A,,Clear,0,2013-06-27 23:55:00
7:15 PM,93.2,75.2,56,29.87,8.0,Calm,Calm,-,N/A,,Clear,0,2013-06-28 00:15:00
7:35 PM,91.4,73.4,55,29.88,7.0,Calm,Calm,-,N/A,,Clear,0,2013-06-28 00:35:00
7:55 PM,89.6,71.6,55,29.88,8.0,Calm,Calm,-,N/A,,Clear,0,2013-06-28 00:55:00
8:15 PM,87.8,69.8,55,29.89,7.0,Calm,Calm,-,N/A,,Clear,0,2013-06-28 01:15:00
8:35 PM,84.2,68.0,58,29.88,8.0,Calm,Calm,-,N/A,,Clear,0,2013-06-28 01:35:00
8:55 PM,84.2,66.2,55,29.89,7.0,Calm,Calm,-,N/A,,Clear,0,2013-06-28 01:55:00
9:15 PM,84.2,66.2,55,29.89,7.0,Calm,Calm,-,N/A,,Clear,0,2013-06-28 02:15:00
9:35 PM,84.2,66.2,55,29.89,7.0,Calm,Calm,-,N/A,,Clear,0,2013-06-28 02:35:00
9:55 PM,84.2,66.2,55,29.90,8.0,NNW,5.8,-,N/A,,Drizzle,330,2013-06-28 02:55:00
10:15 PM,84.2,66.2,55,29.89,8.0,Calm,Calm,-,N/A,,Clear,0,2013-06-28 03:15:00
10:35 PM,82.4,64.4,54,29.88,9.0,ENE,3.5,-,N/A,,Clear,70,2013-06-28 03:35:00
10:55 PM,82.4,64.4,54,29.88,8.0,Calm,Calm,-,N/A,,Clear,0,2013-06-28 03:55:00
11:15 PM,82.4,64.4,54,29.87,9.0,Calm,Calm,-,N/A,,Clear,0,2013-06-28 04:15:00
11:35 PM,80.6,64.4,58,29.87,8.0,Calm,Calm,-,N/A,,Clear,0,2013-06-28 04:35:00
11:55 PM,80.6,62.6,54,29.88,7.0,Calm,Calm,-,N/A,,Clear,0,2013-06-28 04:55:00